ROMMA est une association bénévole à but non lucratif. Votre soutien est indispensable : ADHERER à ROMMA ou FAIRE un DON

Val-d'Arly - (73, Savoie)

Beaufortain (2050 m)   Longitude: 06° 35' 21" E   Latitude: 45° 46' 53" N Station romma n°118
 

Détail journalier du     <<     >>

Température Humidité Vent Dir Rafale Dir. rafale Ensol.
Heure (°C) (%) (km/h) (km/h) (min)
01:00 -6.99319NNE29NNE0
02:00 -7.4928NE23E0
03:00 -7.2927ENE16ENE0
04:00 -7.3928NE15NNE0
05:00 -7.89215NNE21NNE0
06:00 -7.9929NE19NNE0
07:00 -7.8926NE10NE0
08:00 -7.6929NE19ENE0
09:00 -7.1939NE19ENE10
10:00 -7.2928NE16E20
11:00 -6.6937NE15NNE40
12:00 -5.9936ENE15E30
13:00 -5.6937NE16ENE10
14:00 -5.69311NE21NNE10
15:00 -5.59312NE23NNE10
16:00 -5.89317NE27NNE20
17:00 -5.8949NE16ENE10
18:00 -6.2938ENE15E10
19:00 -7.09313ENE24ENE10
20:00 -7.19324ENE35E0
21:00 -7.19328ENE37ENE0
22:00 -7.19323ENE32ENE0
23:00 -7.49317E23E0
minuit -7.49319E23E0

Graphique du 18-03-2019

 

Serveur OMMA